{"data":{"norad_id":63897,"intl_designator":"2025-095H","name":"STARLINK-33957","alt_names":[],"object_type":"PAYLOAD","status":"ACTIVE","operator":null,"country":"US","launch_date":"2025-05-10","launch_site_code":"AFETR","launch_vehicle":null,"mission":null,"orbit_class":"UNKNOWN","rcs_meters":null,"size_class":null,"mass_kg":null,"dimensions":null,"purposes":["comms"],"wikipedia_slug":null,"has_3d_model":false,"image_url":null,"decayed_at":null,"tle_current":{"epoch":"2026-05-25T04:29:39.981120Z","epoch_age_seconds":55566,"freshness":"FRESH","line1":"1 63897U 25095H   26145.18726830  .00016265  00000+0  59908-3 0  9990","line2":"2 63897  43.0016 104.5037 0000577 141.3363 218.7530 15.27591228 59472","mean_motion":15.27591228,"eccentricity":5.77e-5,"inclination_deg":43.0016,"raan_deg":104.5037,"arg_perigee_deg":141.3363,"mean_anomaly_deg":218.753,"bstar":0.00059908,"rev_number":5947,"period_min":94.266055840431,"perigee_km":482.61958707649,"apogee_km":483.41136407217,"semimajor_km":6861.1524755743,"source":"CELESTRAK","updated_at":"2026-05-25T13:38:20.176260Z"}}}